Starlink 34327

operational
NORAD ID: 64208 Int'l Des: 2025-117 Owner: SPXS Country: US Constellation: starlink
LEOCIRCULAR

Starlink 34327について

説明を読み込み中...

リアルタイム位置

3D地球を読み込み中...

次回通過

高度履歴

Altitude vs Time

uPlot chart will show altitude changes over time

軌道要素

1 64208U 25117F 25340.64340234 .00029118 00000-0 99163-3 0 9998
2 64208 53.1590 111.5303 0001232 79.7183 280.3956 15.30192274 29246
Epoch: Dec 6, 2025 • Age: 15 hours

現在のステータス

高度 475.2 km
速度 7.63 km/s
衛星直下点 13.42°N, 108.25°E
打ち上げ日 May 31, 2025
運用期間 0.5 years
タイプ internet

技術仕様

分類 Payload
質量 575.00 kg
乾燥質量 530.00 kg
総質量 575.00 kg
長さ 0.30 m
直径 4.10 m
スパン 29.00 m
形状 Box + pan
製造者 SPXS
バスタイプ Starlink V2MO
フェーズステータス In Orbit
所有者/国 SPXS/US

大規模コンステレーション

Loading constellations...